When you browse on this site, cookies collect data to enhance your experience and personalize the content and advertising you see.
Visit our Privacy Policy to learn more. By continuing to use the site, you agree to this use of cookies and data.
  • In Czech Republic
  • List of Countries
  • For 7 days
  • Water Temperature
  • Weather Map
  • Weather Widgets
  • user-avatar
    Login

    Hourly Weather Volkovo

    Today, 7 June, Sunday

    Time Temperature Precipitation Wind Pressure Humidity
    00:00 +12°C° 0 mm 3 mps 749 mmHg 95%
    01:00 +13°C° 0 mm 2 mps 748 mmHg 96%
    02:00 +12°C° 0 mm 2 mps 749 mmHg 96%
    03:00 +12°C° 0 mm 2 mps 749 mmHg 96%
    04:00 +12°C° 0 mm 1 mps 749 mmHg 98%
    05:00 +13°C° 0 mm 2 mps 749 mmHg 95%
    06:00 +14°C° 0 mm 2 mps 749 mmHg 93%
    07:00 +15°C° 0 mm 2 mps 749 mmHg 91%
    08:00 +16°C° 0 mm 3 mps 749 mmHg 86%
    09:00 +18°C° 0 mm 3 mps 749 mmHg 81%
    10:00 +19°C° 0 mm 4 mps 749 mmHg 76%
    11:00 +20°C° 0.6 mm 4 mps 749 mmHg 75%
    12:00 +20°C° 0.6 mm 4 mps 749 mmHg 73%
    13:00 +21°C° 0.6 mm 4 mps 749 mmHg 72%
    14:00 +20°C° 1.2 mm 5 mps 749 mmHg 76%
    15:00 +19°C° 1.2 mm 5 mps 749 mmHg 81%
    16:00 +17°C° 1.2 mm 6 mps 749 mmHg 85%
    17:00 +17°C° 0.8 mm 5 mps 749 mmHg 86%
    18:00 +17°C° 0.8 mm 5 mps 748 mmHg 87%
    19:00 +17°C° 0.8 mm 5 mps 748 mmHg 88%
    20:00 +17°C° 0.1 mm 4 mps 748 mmHg 90%
    21:00 +15°C° 0.1 mm 4 mps 749 mmHg 92%
    22:00 +14°C° 0.1 mm 3 mps 749 mmHg 94%
    23:00 +14°C° 0.2 mm 3 mps 749 mmHg 95%

    Tomorrow, 8 June, Monday

    Time Temperature Precipitation Wind Pressure Humidity
    00:00 +13°C° 0.2 mm 3 mps 749 mmHg 96%
    01:00 +13°C° 0.2 mm 3 mps 749 mmHg 97%
    02:00 +13°C° 0.2 mm 3 mps 749 mmHg 97%
    03:00 +13°C° 0.2 mm 3 mps 749 mmHg 97%
    04:00 +13°C° 0.2 mm 3 mps 750 mmHg 97%
    05:00 +14°C° 0.1 mm 4 mps 750 mmHg 96%
    06:00 +15°C° 0.1 mm 4 mps 750 mmHg 95%
    07:00 +15°C° 0.1 mm 4 mps 750 mmHg 94%
    08:00 +17°C° 0.1 mm 4 mps 750 mmHg 92%
    09:00 +17°C° 0.1 mm 5 mps 750 mmHg 89%
    10:00 +17°C° 0.1 mm 5 mps 751 mmHg 86%
    11:00 +19°C° 0.1 mm 5 mps 751 mmHg 83%
    12:00 +20°C° 0.1 mm 6 mps 751 mmHg 80%
    13:00 +20°C° 0.1 mm 6 mps 751 mmHg 77%
    14:00 +21°C° 0.1 mm 7 mps 751 mmHg 74%
    15:00 +21°C° 0.1 mm 7 mps 751 mmHg 71%
    16:00 +22°C° 0.1 mm 7 mps 751 mmHg 68%
    17:00 +21°C° 0.1 mm 6 mps 751 mmHg 71%
    18:00 +21°C° 0.1 mm 4 mps 751 mmHg 75%
    19:00 +21°C° 0.1 mm 3 mps 751 mmHg 79%
    20:00 +19°C° 0 mm 3 mps 752 mmHg 81%
    21:00 +18°C° 0 mm 3 mps 752 mmHg 83%
    22:00 +17°C° 0 mm 3 mps 752 mmHg 85%
    23:00 +16°C° 0 mm 3 mps 752 mmHg 86%

    Day after tomorrow, 9 June, Tuesday

    Time Temperature Precipitation Wind Pressure Humidity
    00:00 +16°C° 0 mm 3 mps 752 mmHg 87%
    01:00 +14°C° 0 mm 3 mps 753 mmHg 88%
    02:00 +14°C° 0 mm 3 mps 753 mmHg 87%
    03:00 +14°C° 0 mm 3 mps 753 mmHg 85%
    04:00 +13°C° 0 mm 3 mps 754 mmHg 84%
    05:00 +16°C° 0 mm 3 mps 754 mmHg 82%
    06:00 +17°C° 0 mm 4 mps 754 mmHg 80%
    07:00 +19°C° 0 mm 4 mps 754 mmHg 78%
    08:00 +20°C° 0 mm 4 mps 754 mmHg 74%
    09:00 +22°C° 0 mm 4 mps 755 mmHg 70%
    10:00 +23°C° 0 mm 4 mps 755 mmHg 66%
    11:00 +25°C° 0 mm 4 mps 755 mmHg 61%
    12:00 +26°C° 0 mm 4 mps 755 mmHg 56%
    13:00 +27°C° 0 mm 5 mps 755 mmHg 50%
    14:00 +27°C° 0 mm 4 mps 755 mmHg 51%
    15:00 +27°C° 0 mm 4 mps 755 mmHg 52%
    16:00 +27°C° 0 mm 4 mps 755 mmHg 53%
    17:00 +27°C° 0 mm 4 mps 755 mmHg 58%
    18:00 +26°C° 0 mm 3 mps 755 mmHg 62%
    19:00 +25°C° 0 mm 2 mps 755 mmHg 67%
    20:00 +23°C° 0 mm 2 mps 755 mmHg 69%
    21:00 +21°C° 0 mm 2 mps 755 mmHg 71%
    22:00 +19°C° 0 mm 2 mps 755 mmHg 74%
    23:00 +18°C° 0 mm 2 mps 755 mmHg 74%

    10 June, Wednesday

    Time Temperature Precipitation Wind Pressure Humidity
    00:00 +18°C° 0 mm 2 mps 755 mmHg 74%
    01:00 +17°C° 0 mm 2 mps 755 mmHg 74%
    02:00 +17°C° 0 mm 3 mps 755 mmHg 73%
    03:00 +17°C° 0 mm 3 mps 755 mmHg 73%
    04:00 +16°C° 0 mm 3 mps 755 mmHg 73%
    05:00 +17°C° 0 mm 3 mps 755 mmHg 73%
    06:00 +18°C° 0 mm 3 mps 755 mmHg 73%
    07:00 +20°C° 0 mm 3 mps 755 mmHg 73%
    08:00 +21°C° 0 mm 3 mps 755 mmHg 71%
    09:00 +24°C° 0 mm 3 mps 755 mmHg 68%
    10:00 +25°C° 0 mm 3 mps 755 mmHg 66%
    11:00 +26°C° 0 mm 3 mps 755 mmHg 62%
    12:00 +27°C° 0 mm 3 mps 754 mmHg 58%
    13:00 +28°C° 0 mm 3 mps 754 mmHg 54%
    14:00 +28°C° 0.1 mm 4 mps 754 mmHg 56%
    15:00 +28°C° 0.1 mm 4 mps 754 mmHg 58%
    16:00 +27°C° 0.1 mm 4 mps 753 mmHg 61%
    17:00 +26°C° 0.1 mm 4 mps 753 mmHg 65%
    18:00 +25°C° 0.1 mm 3 mps 753 mmHg 70%
    19:00 +24°C° 0.1 mm 3 mps 753 mmHg 74%
    20:00 +22°C° 0 mm 3 mps 753 mmHg 76%
    21:00 +21°C° 0 mm 3 mps 753 mmHg 79%
    22:00 +19°C° 0 mm 3 mps 753 mmHg 81%
    23:00 +18°C° 0.1 mm 3 mps 752 mmHg 82%

    11 June, Thursday

    Time Temperature Precipitation Wind Pressure Humidity
    00:00 +18°C° 0.1 mm 3 mps 752 mmHg 83%
    01:00 +17°C° 0.1 mm 2 mps 752 mmHg 83%
    02:00 +17°C° 0.1 mm 2 mps 752 mmHg 84%
    03:00 +17°C° 0.1 mm 2 mps 752 mmHg 85%
    04:00 +18°C° 0.1 mm 1 mps 751 mmHg 86%
    05:00 +18°C° 0 mm 2 mps 751 mmHg 85%
    06:00 +18°C° 0 mm 3 mps 751 mmHg 85%
    07:00 +19°C° 0 mm 3 mps 751 mmHg 84%
    08:00 +20°C° 0 mm 4 mps 751 mmHg 79%
    09:00 +21°C° 0 mm 4 mps 751 mmHg 75%
    10:00 +23°C° 0 mm 5 mps 750 mmHg 70%
    11:00 +25°C° 0 mm 5 mps 750 mmHg 68%
    12:00 +26°C° 0 mm 5 mps 750 mmHg 65%
    13:00 +27°C° 0 mm 5 mps 750 mmHg 63%
    14:00 +26°C° 1.2 mm 5 mps 749 mmHg 66%
    15:00 +26°C° 1.2 mm 5 mps 749 mmHg 70%
    16:00 +26°C° 1.2 mm 5 mps 748 mmHg 74%
    17:00 +25°C° 0.4 mm 4 mps 748 mmHg 76%
    18:00 +25°C° 0.4 mm 4 mps 748 mmHg 78%
    19:00 +24°C° 0.4 mm 3 mps 747 mmHg 81%
    20:00 +22°C° 0.4 mm 3 mps 747 mmHg 84%
    21:00 +21°C° 0.4 mm 2 mps 747 mmHg 87%
    22:00 +20°C° 0.4 mm 2 mps 747 mmHg 90%
    23:00 +19°C° 0 mm 2 mps 747 mmHg 91%

    12 June, Friday

    Time Temperature Precipitation Wind Pressure Humidity
    00:00 +18°C° 0 mm 2 mps 746 mmHg 92%
    01:00 +18°C° 0 mm 2 mps 746 mmHg 93%
    02:00 +18°C° 0 mm 2 mps 746 mmHg 94%
    03:00 +17°C° 0 mm 2 mps 746 mmHg 95%
    04:00 +17°C° 0 mm 3 mps 746 mmHg 96%
    05:00 +18°C° 0 mm 3 mps 746 mmHg 95%
    06:00 +19°C° 0 mm 3 mps 745 mmHg 93%
    07:00 +20°C° 0 mm 3 mps 745 mmHg 92%
    08:00 +21°C° 0.2 mm 3 mps 745 mmHg 87%
    09:00 +22°C° 0.2 mm 3 mps 745 mmHg 82%
    10:00 +24°C° 0.2 mm 3 mps 745 mmHg 77%
    11:00 +25°C° 0.6 mm 3 mps 745 mmHg 75%
    12:00 +25°C° 0.6 mm 4 mps 745 mmHg 73%
    13:00 +26°C° 0.6 mm 4 mps 744 mmHg 70%
    14:00 +26°C° 0.5 mm 4 mps 744 mmHg 70%
    15:00 +26°C° 0.5 mm 4 mps 744 mmHg 70%
    16:00 +26°C° 0.5 mm 4 mps 744 mmHg 70%
    17:00 +26°C° 1.1 mm 3 mps 743 mmHg 75%
    18:00 +25°C° 1.1 mm 3 mps 743 mmHg 79%
    19:00 +24°C° 1.1 mm 3 mps 743 mmHg 83%
    20:00 +22°C° 0.2 mm 3 mps 743 mmHg 86%
    21:00 +21°C° 0.2 mm 2 mps 743 mmHg 89%
    22:00 +20°C° 0.2 mm 2 mps 743 mmHg 91%
    23:00 +19°C° 0 mm 2 mps 742 mmHg 92%
    Show more